Regional Weather Roundup
Issued by NWS Mt. Holly, NJ

Home | Current Version | Previous Version | Text Only | Print | Product List | Glossary On
Versions: 1 2 3 4 5 6 7 8 9 10 11 12 13 14 15 16 17 18 19 20 21 22 23 24 25 26 27 28 29
000
ASUS41 KPHI 251210
RWRPHI

REGIONAL WEATHER ROUNDUP
NATIONAL WEATHER SERVICE MOUNT HOLLY NJ
800 AM EDT SAT OCT 25 2014

NOTE:  "FAIR" INDICATES FEW OR NO CLOUDS BELOW 12,000 FEET WITH NO
SIGNIFICANT WEATHER AND/OR OBSTRUCTIONS TO VISIBILITY.

 * = STATION DOES NOT REPORT PRECIPITATION (E.G. RAIN, SNOW, ETC.)
        OR FOG.

NJZ015>026-251300-
SOUTHERN NEW JERSEY

CITY           SKY/WX    TMP DP  RH WIND       PRES   REMARKS
POMONA         CLEAR     43  39  86 W3        29.91R
6HR MIN TEMP:  40; 6HR MAX TEMP:  48;

RIO GRANDE*    CLEAR     54  41  62 NW5       29.93S
MILLVILLE      CLEAR     39  38  96 W5        29.93R
WRIGHTSTOWN    CLEAR     46  34  62 W3        29.89R HAZE
MOUNT HOLLY    CLEAR     39  37  92 CALM      29.91R
TRENTON        CLEAR     46  31  55 W5        29.90R
6HR MIN TEMP:  39; 6HR MAX TEMP:  54;


$$
NJZ001>014-251300-
NORTHERN NEW JERSEY

CITY           SKY/WX    TMP DP  RH WIND       PRES   REMARKS
SUSSEX         CLEAR     40  34  79 CALM      29.88S
ANDOVER*         N/A     37  35  92 CALM      29.89S
MORRISTOWN     CLEAR     39  37  93 CALM      29.89R
NEWARK         PTCLDY    49  34  56 W7        29.88R
TETERBORO      CLEAR     45  37  73 CALM      29.87R
CALDWELL       CLEAR     42  36  79 CALM      29.89R
SOMERVILLE     CLEAR     36  34  92 CALM      29.88R
ALLAIRE*       CLEAR     43  34  70 W8        29.88R
TOMS RIVER*    CLEAR     39  36  87 CALM      29.90R

$$
PAZ043-044-047-054-055-060>062-066>071-251300-
EASTERN PENNSYLVANIA

CITY           SKY/WX    TMP DP  RH WIND       PRES   REMARKS
PHILADELPHIA   PTCLDY    48  38  68 W6        29.93R
6HR MIN TEMP:  46; 6HR MAX TEMP:  55;

NORTH PHILA    CLEAR     44  35  70 W3        29.93R
BLUE BELL      CLEAR     41  39  93 CALM      29.91R
DOYLESTOWN     CLEAR     41  33  73 CALM      29.91R
QUAKERTOWN*    CLEAR     37  34  87 CALM      29.91S
POTTSTOWN      CLEAR     39  36  89 CALM      29.93R
LANCASTER      CLEAR     43  37  79 W5        29.92S
COATESVILLE    CLEAR     46  39  76 W3        29.93R
READING        CLEAR     41  37  86 CALM      29.91S
6HR MIN TEMP:  41; 6HR MAX TEMP:  53;

ALLENTOWN      CLEAR     41  33  73 CALM      29.91R
6HR MIN TEMP:  38; 6HR MAX TEMP:  51;

MOUNT POCONO   CLEAR     44  32  62 NW10      29.87S
6HR MIN TEMP:  42; 6HR MAX TEMP:  45;

HAZLETON       PTCLDY    45  36  70 CALM      29.92S
WILKES BARRE   PTCLDY    39  34  82 CALM      29.89F

$$
DEZALL-MDZ008-012-015-019-020-251300-
DELAWARE AND EASTERN MARYLAND

CITY           SKY/WX    TMP DP  RH WIND       PRES   REMARKS
WILMINGTON     CLEAR     43  40  89 W6        29.94R
6HR MIN TEMP:  41; 6HR MAX TEMP:  52;

DOVER          CLEAR     45  40  84 W5        29.91R
GEORGETOWN     CLEAR     45  40  82 CALM      29.95R
6HR MIN TEMP:  42; 6HR MAX TEMP:  52;

PATUXENT       CLEAR     45  39  79 W6        29.96S
OCEAN CITY     CLEAR     46  40  79 NW3       29.93S
WALLOPS ISLAND CLEAR     49  43  80 NW5       29.95S
CAMBRIDGE      CLEAR     43  41  93 CALM      29.95R
SALISBURY      CLEAR     42  37  82 CALM      29.95R

$$
PAZ001-021-NYZ056-072-MDZ011-DCZ001-251300-
OTHER NEARBY LOCATIONS

CITY           SKY/WX    TMP DP  RH WIND       PRES   REMARKS
HARRISBURG     CLEAR     43  40  89 CALM      29.92S
STATE COLLEGE  CLOUDY    45  39  81 SW5       29.93S
WILLIAMSPORT   CLOUDY    42  35  76 CALM      29.91F
BINGHAMTON     CLOUDY    43  36  76 SW6       29.85F
NEW YORK CITY  CLEAR     51  36  56 W6        29.89R
BALTIMORE      PTCLDY    46  39  76 CALM      29.94S
WASHINGTON DC  CLEAR     50  41  71 SW3       29.97S

$$



USA.gov is the U.S. government's official web portal to all federal, state and local government web resources and services.